Location: Unspecified
(0.0000°N, 0.0000°E)
Time: 14:23:40
(UTC+00:00)

STARLINK-36318 - Pass Details

Date: 04 March 2026
Orbit: 269 x 270 km, 53.2° (Epoch: 6 March)

Event Time Altitude Azimuth Distance (km) Brightness Sun altitude
Rises 19:02:23 0° 219° (SW) 1,835 6.0 -12.6°
Reaches altitude 10° 19:04:15 10° 223° (SW) 1,036 4.8 -13.1°
Maximum altitude 19:06:31 58° 304° (NW) 305 1.6 -13.6°
Enters shadow 19:07:49 21° 19° (NNE) 651 2.8 -14.0°
